Simultaneous Nadir Overpasses (SNOs) Predictions

Prediction of SNOs between NOAA-15 and METOP-C Satellite Orbit:

Table of predicted SNOs for the next 14.0 days since TLE Epoch: 6/17/2023
Index Date (NOAA-15) Time (NOAA-15) Lat,Lon (NOAA-15) SZA (NOAA-15 ) Date (METOP-C) Time (METOP-C) Lat,Lon (METOP-C) SZA (METOP-C ) Distance(km) Time Diff (sec)
1 06/26/2023 22:11:29 81.08,-114.29 59.71 06/26/2023 22:10:19 81.09,-114.44 59.67 3.01 70
2 06/26/2023 23:02:01 -81.08, 52.98 120.31 06/26/2023 23:01:01 -81.09, 52.89 120.33 1.74 60
3 06/26/2023 23:52:31 81.09,-139.93 59.68 06/26/2023 23:51:41 81.08,-139.94 59.65 1.24 50
4 06/27/2023 00:43:03 -81.10, 27.33 120.33 06/27/2023 00:42:23 -81.08, 27.40 120.35 2.06 40
5 06/27/2023 01:33:32 81.09,-165.21 59.68 06/27/2023 01:33:02 81.09,-165.07 59.68 2.46 30
6 06/27/2023 02:24:03 -81.08, 2.42 120.30 06/27/2023 02:23:44 -81.09, 2.27 120.32 2.73 19
7 06/27/2023 03:14:33 81.09, 169.52 59.68 06/27/2023 03:14:24 81.08, 169.43 59.66 1.87 9
8 06/27/2023 04:05:05 -81.10, -23.23 120.33 06/27/2023 04:05:06 -81.08, -23.23 120.34 1.70 1
9 06/27/2023 04:55:34 81.10, 144.24 59.68 06/27/2023 04:55:45 81.09, 144.31 59.69 1.20 11
10 06/27/2023 05:46:06 -81.10, -48.51 120.33 06/27/2023 05:46:27 -81.09, -48.35 120.31 2.86 21
11 06/27/2023 06:36:35 81.10, 118.97 59.68 06/27/2023 06:37:07 81.09, 118.81 59.67 2.96 32
12 06/27/2023 07:27:06 -81.09, -73.42 120.30 06/27/2023 07:27:48 -81.10, -73.48 120.28 1.97 42
13 06/27/2023 08:17:35 81.10, 93.69 59.69 06/27/2023 08:18:27 81.09, 93.68 59.70 0.38 52
14 06/27/2023 09:08:07 -81.10, -99.07 120.33 06/27/2023 09:09:09 -81.10, -98.97 120.30 1.86 62



Historial Predications of SNOs between NOAA-15 and METOP-C
